Other Public Products
Issued by NWS Grand Forks, ND

Home | Current Version | Previous Version | Text Only | Print | Product List | Glossary Off
Versions: 1 2 3 4 5 6 7 8 9 10 11 12 13 14 15 16 17 18 19 20 21 22 23 24 25 26 27 28 29 30 31 32 33 34 35 36 37 38 39 40 41 42 43 44 45 46 47 48 49 50

000
FPUS83 KFGF 220131
OPUFGF
PRAIRIE TO PINES WEATHER ROUNDUP
NATIONAL WEATHER SERVICE EASTERN NORTH DAKOTA/GRAND FORKS ND
800 PM CDT THU AUG 21 2014

 **SATELLITE DATA USED TO AUGMENT SKY COVER AT AUTOMATED STATIONS**
 *****  WEATHER ACROSS EASTERN NORTH DAKOTA  *****

CITY           SKY/WX    TMP DP  RH WIND       PRES   REMARKS
GRAND FORKS    MOCLDY    75  70  84 N3        29.84R
GRAND FORKS AF MOCLDY    71  71 100 N3        29.86R
GRAND CITY NWS   N/A     63 N/A N/A MISG        N/A
BUXTON           N/A     76  73  90 CALM        N/A
DEVILS LAKE    PTCLDY    70  63  78 N10       29.89R
FARGO          CLEAR     77  69  76 CALM      29.83R
WAHPETON ARPT  CLEAR     73  68  83 CALM      29.84R
$$

 *****  WEATHER ACROSS CENTRAL AND WESTERN NORTH DAKOTA  *****

CITY           SKY/WX    TMP DP  RH WIND       PRES   REMARKS
JAMESTOWN      CLEAR     75  68  78 N3        29.87R
BISMARCK       CLEAR     76  63  64 N14       29.92R
MINOT          PTCLDY    71  62  73 N12       29.94R
MINOT AFB      PTCLDY    72  64  76 N14       29.94R
GARRISON         N/A     72  63  73 N7        29.93R
WILLISTON      MOCLDY    72  57  59 NE10      29.98R
DICKINSON      PTCLDY    69  60  73 N9        29.96S
HETTINGER      MOCLDY    74  60  61 N7        29.96S
$$

 *****  OTHER OBSERVATIONS NORTHEAST NORTH DAKOTA  *****

CITY           SKY/WX    TMP DP  RH WIND       PRES   REMARKS
WALHALLA         N/A     72  72 100 E5        29.88R
LANGDON          N/A     68  66  94 N8        29.90R
CAVALIER       CLOUDY    72  66  83 NE3       29.87R
GRAFTON        MOCLDY    72  68  88 NE8       29.85S
CANDO          FAIR      68  64  88 N7        29.92R
FORT TOTTEN    NOT AVBL
ROLLA          FAIR      64  64 100 N5        29.94R
RUGBY          MOCLDY    70  68  94 CALM      29.92R
 ***** THE ABOVE OBSERVATIONS ARE NON NWS ARE NOT QUALITY
        CONTROLLED AND MAY MIS-REPORT RAIN FOR SNOW...
$$

 *****  OTHER OBSERVATIONS SOUTHEAST NORTH DAKOTA *****

CITY           SKY/WX    TMP DP  RH WIND       PRES   REMARKS
COOPERSTOWN    NOT AVBL
VALLEY CITY    CLOUDY    75  73  94 CALM      29.87R
OAKES          NOT AVBL
GWINNER        PTCLDY    75  73  94 CALM      29.87R
SHEYENNE NWR     N/A     80  70  70 CALM      29.95
BUFFALO          N/A     75  66  73 SE3         N/A
WYNDMERE       NOT AVBL
 ***** THE ABOVE OBSERVATIONS ARE NON NWS ARE NOT QUALITY
       CONTROLLED AND MAY MIS-REPORT RAIN FOR SNOW...
$$

  *****  WEATHER ACROSS NORTHERN MINNESOTA  *****

CITY           SKY/WX    TMP DP  RH WIND       PRES   REMARKS
FLAG ISLAND    CLOUDY    66  63  88 CALM      29.89S
WARROAD        CLOUDY    66  64  94 E5        29.91R
ROSEAU         PTCLDY    70  64  83 NE7       29.89R
HALLOCK        MOCLDY    72  66  83 E6        29.85S
THF RVR FALLS  CLOUDY    73  66  78 E5        29.87R
HALSTAD          N/A     74  70  86 CALM        N/A
FOSSTON        CLOUDY    70  64  83 CALM      29.88R
BAUDETTE       MOCLDY    67  63  87 E9        29.89R
WASKISH        CLOUDY    70  66  88 CALM      29.89R
CROOKSTON      MOCLDY    73  70  88 N3        29.86R
$$
  *****  WEATHER ACROSS CENTRAL AND WEST MINNESOTA  *****

CITY           SKY/WX    TMP DP  RH WIND       PRES   REMARKS
BEMIDJI        CLOUDY    69  66  91 SE6       29.88R
PARK RAPIDS    CLOUDY    70  67  90 E3        29.88R
WADENA         CLOUDY    70  66  88 CALM      29.87R
DETROIT LAKES  CLOUDY    70  68  94 SE5       29.88R
MOORHEAD       CLEAR     75  73  94 CALM      29.85R
FERGUS FALLS   PTCLDY    73  66  78 CALM      29.85R
ELBOW LAKE     FAIR      73  70  91 SE6       29.85R
MORRIS MN      CLEAR     75  73  94 CALM      29.84R
STAPLES        CLOUDY    68  66  94 CALM      29.87S
WHEATON        CLEAR     73  70  88 CALM      29.86R
$$
  *****  WEATHER ELSEWHERE ACROSS MINNESOTA  *****

CITY           SKY/WX    TMP DP  RH WIND       PRES   REMARKS
DULUTH         CLOUDY    63  60  90 E8        29.90S
INTRNTL FALLS  CLOUDY    66  62  87 E9        29.90S
ELY            CLOUDY    63  59  88 E3        29.94R
CLOQUET        CLOUDY    63  61  94 E6        29.90R
BRAINERD       CLOUDY    68  66  93 NE6       29.87R
HIBBING        CLOUDY    68  61  78 SE6       29.90S
ALEXANDRIA     CLOUDY    73  68  84 CALM      29.88R
SAINT CLOUD    CLOUDY    77  71  82 NE3       29.83R
MINNEAPOLIS    PTCLDY    84  74  71 NE3       29.80S HX  91
$$

  *****  WEATHER ACROSS SOUTH DAKOTA  *****

CITY           SKY/WX    TMP DP  RH WIND       PRES   REMARKS
SIOUX FALLS    PTCLDY    79  70  74 N6        29.86R
BROOKINGS      NOT AVBL
WATERTOWN      CLEAR     77  68  73 N6        29.87S
HURON          PTCLDY    79  66  64 N8        29.85S
SISSETON         N/A     76  74  93 CALM      29.84R
ABERDEEN       CLEAR     76  66  71 N7        29.88R
MITCHELL       PTCLDY    80  68  66 N6        29.85S
PIERRE         CLEAR     84  64  50 N5        29.87S
MOBRIDGE       CLEAR     75  64  68 N7        29.89R
RAPID CITY     PTCLDY    73  58  59 N10       29.94F
$$

  *****  SOME WEATHER IN NEARBY STATES *****

CITY           SKY/WX    TMP DP  RH WIND       PRES   REMARKS
GLASGOW MT     LGT RAIN  61  60  97 NE8       30.03S
GREAT FALLS MT CLOUDY    59  52  77 NE17      30.11R
CHEYENNE WY    CLOUDY    72  44  36 S13       30.15F
SCOTTSBLUFF NE MOCLDY    84  48  28 S7        29.98F
OMAHA NE       PTCLDY    88  73  61 E6        29.83R HX  95
DES MOINES IA  PTCLDY    84  76  76 S5        29.84S HX  93
DAVENPORT IA   MOCLDY    77  74  90 S6        29.88F
CHICAGO IL     MOCLDY    76  71  85 S3        29.91R
EAU CLAIRE WI  CLOUDY    77  72  84 S10       29.84R
LA CROSSE WI   CLEAR     80  72  76 S14       29.86R
$$

  *****  SOME NATIONAL WEATHER *****

CITY           SKY/WX    TMP DP  RH WIND       PRES   REMARKS
LA GUARDIA NY  CLOUDY    73  61  65 SE9       30.03S
RALEIGH NC     MOCLDY    78  70  76 CALM      30.06R
ATLANTA GA     PTCLDY    78  70  76 W6        30.11S
NEW ORLEANS LA CLOUDY    78  73  84 W3        30.11R
OKLAHOMA CITY  CLEAR     91  70  49 S17G24    29.91R HX  96
ALBUQUERQUE NM PTCLDY    86  35  16 S14       30.07S
SALT LAKE CITY PTSUNNY   78  43  28 SE8       30.00F
LOS ANGELES CA MOSUNNY   72  62  71 W15       29.90S
BOISE ID       PTSUNNY   81  29  15 N10       29.88F
SEATTLE WA     MOSUNNY   69  50  50 S6        29.98F
$$

*** WEATHER ACROSS MANITOBA...SASKATCHEWAN AND ONTARIO ***
                ***ONTARIO***

CITY           SKY/WX    TMP DP  RH WIND       PRES   REMARKS
GERALDTON      MOCLDY    68  63  83 CALM      30.00S
THUNDER BAY    CLOUDY    63  61  94 E8        29.98R
SIOUX LOOKOUT  MOCLDY    66  61  82 SE3       29.94R
TORONTO        PTCLDY    73  64  73 N10       29.97R
BIG TROUT LK   CLOUDY    72  61  68 S8        29.94R
PICKLE LAKE    CLOUDY    68  59  73 SE8       29.97R
DRYDEN         CLOUDY    66  61  82 E6        29.91F
KENORA         CLOUDY    66  63  88 S3        29.93R
$$
                *** MANITOBA***

CITY           SKY/WX    TMP DP  RH WIND       PRES   REMARKS
BRANDON        LGT RAIN  64  63  94 N10       29.95R
DAUPHIN        CLOUDY    63  59  88 N13G18    29.98R
ISLAND LAKE    CLOUDY   N/A N/A N/A N3          N/A
PILOT MOUND      N/A     68  66  94 N6          N/A
THE PAS        CLOUDY    66  55  68 N13       30.02
THOMPSON       LGT RAIN  55  55 100 N8        30.01R
WINNIPEG       LGT RAIN  70  68  94 S2        29.88R
LYNN LAKE      CLOUDY    57  50  77 MISG      30.09R
CHURCHILL      LGT RAIN  46  45  93 N22       30.00R FOG
GILLAM         DRZL/FOG N/A N/A N/A N15         N/A  VSB 3/4
$$
                ***SASKATCHEWAN***

CITY           SKY/WX    TMP DP  RH WIND       PRES   REMARKS
ESTEVAN        CLOUDY    68  59  73 NE6       29.99R
KINDERSLEY     PTSUNNY   59  50  72 N8        30.15S
LLOYDMINSTER   PTSUNNY   57  43  58 N8        30.19R
PRINCE ALBERT  MOSUNNY   59  50  72 N8        30.13R
REGINA         MOCLDY    64  55  72 N10       30.05R



USA.gov is the U.S. government's official web portal to all federal, state and local government web resources and services.